Zurück zum Katalog

STARLINK-30421

AktivKommunikationVLEO
NORAD 58107·PAYLOAD·🇺🇸 United States

Gestartet Oct 21, 2023 von Vandenberg Space Force Base

Loading…

Nächste Überflüge (nächste 24 Stunden)

TLE

AktuellSource: CelesTrak SupGP

Epoche: Sep 14, 2026, 21:33 UTC

1 58107C 23161L   26257.89840278 -.00009060  00000+0 -26786-3 0  2577
2 58107  53.1596 349.5899 0001202  82.7646  88.8333 15.34374801    17

Verfolge STARLINK-30421 in Echtzeit mit AllMySat

Download on the App Store